Find Starlink 2378

NORAD ID: 47916 Int'l Des: 2021-021 Owner: SPXS Country: US Constellation: starlink operational
LEOCIRCULAR

リアルタイム位置

3D地球を読み込み中...

Starlink 2378について

説明を読み込み中...

次回通過

Passes for default location (London). Set your location on the main map for personalized predictions.

高度履歴

Loading altitude history...

軌道要素

1 47916U 21021BJ 26106.06916315 .00001241 00000-0 54037-4 0 9990
2 47916 53.1598 81.7322 0001503 91.7532 268.3641 15.30197197282138
Epoch: Apr 16, 2026 • Age: 17 hours

現在のステータス

高度 476.0 km
速度 7.63 km/s
衛星直下点 1.02°N, 49.41°W
打ち上げ日 Mar 14, 2021
運用期間 5 years
タイプ internet

技術仕様

分類 Payload
質量 260.00 kg
乾燥質量 248.00 kg
総質量 260.00 kg
長さ 0.20 m
直径 2.80 m
スパン 9.00 m
形状 Box + pan
製造者 SPXS
バスタイプ Starlink
フェーズステータス In Orbit
所有者/国 SPXS/US

Most Searched